Agotcy, Indonesia

1:59 AM WITA on April 27, 2017 (GMT +0800)
Agotcy

Weather History for 97014 - February, 2014

Change the Weather History Date:

Tuesday, February 25, 2014

  Actual Average Record
Temperature  
Mean Temperature 80 °F -  
Max Temperature 86 °F - - ()
Min Temperature 73 °F - - ()
Cooling Degree Days 14    
Growing Degree Days 30 (Base 50)    
Moisture  
Dew Point 74 °F    
Average Humidity 83    
Maximum Humidity 100    
Minimum Humidity 64    
Precipitation  
Precipitation 0.01 in - - ()
Sea Level Pressure  
Sea Level Pressure 29.90 in    
Wind  
Wind Speed 2 mph ()    
Max Wind Speed 10 mph    
Max Gust Speed -    
Visibility 5.8 miles    
Events Rain    
T = Trace of Precipitation, MM = Missing Value Source: Averaged Metar Reports

Daily Weather History Graph

Daily Weather History Graph

Search for Another Location

Airport or City:

Trip Planner

Search our weather history database for the weather conditions in past years. The results will help you decide how hot, cold, wet, or windy it might be!

Date:

Astronomy

Feb. 25, 2014 Rise Set
Actual Time 5:51 AM WITA 5:55 PM WITA
Civil Twilight 5:30 AM WITA 6:16 PM WITA
Nautical Twilight 5:05 AM WITA 6:41 PM WITA
Astronomical Twilight 4:41 AM WITA 7:05 PM WITA
Moon 1:35 AM WITA (2/25) 1:58 PM WITA (2/25)
Length of Visible Light 12h 46m
Length of Day
12h 04m
Waning Crescent, 23% of the Moon is Illuminated
Feb 25
Waning Crescent
Mar 1
New
Mar 8
First Quarter
Mar 17
Full
Mar 24
Last Quarter

Hourly Weather History & Observations

Time (WITA) Temp. Heat Index Dew Point Humidity Pressure Visibility Wind Dir Wind Speed Gust Speed Precip Events Conditions
12:00 AM 75.2 °F - 73.4 °F 94% 29.95 in 5.0 mi Calm Calm - N/A   Scattered Clouds
12:30 AM 75.2 °F - 75.2 °F 100% 29.92 in 5.0 mi SE 2.3 mph - N/A   Scattered Clouds
1:00 AM 75.2 °F - 73.4 °F 94% 29.92 in 5.0 mi Calm Calm - N/A   Scattered Clouds
5:00 AM 73 °F - 72 °F 98% 29.91 in 6 mi Calm Calm - -   Partly Cloudy
5:00 AM 73.4 °F - 73.4 °F 100% 29.89 in 5.0 mi Calm Calm - N/A   Scattered Clouds
5:30 AM 73.4 °F - 73.4 °F 100% 29.89 in 5.0 mi Calm Calm - N/A   Scattered Clouds
6:00 AM 73.4 °F - 73.4 °F 100% 29.92 in 5.0 mi Calm Calm - N/A   Scattered Clouds
6:30 AM 73.4 °F - 73.4 °F 100% 29.92 in 5.0 mi Calm Calm - N/A   Scattered Clouds
7:00 AM 77.0 °F - 75.2 °F 94% 29.92 in 6.2 mi SE 2.3 mph - N/A   Scattered Clouds
7:30 AM 78.8 °F - 73.4 °F 83% 29.95 in 6.2 mi Calm Calm - N/A   Scattered Clouds
8:00 AM 80 °F - 74 °F 77% 29.95 in 6 mi South 1.2 mph - -   Partly Cloudy
8:00 AM 80.6 °F 85.4 °F 73.4 °F 79% 29.95 in 6.2 mi South 1.2 mph - N/A   Partly Cloudy
8:30 AM 82.4 °F 88.2 °F 73.4 °F 74% 29.95 in 6.2 mi West 3.5 mph - N/A   Partly Cloudy
9:00 AM 82.4 °F 88.2 °F 73.4 °F 74% 29.95 in 6.2 mi North 1.2 mph - N/A   Scattered Clouds
10:00 AM 80.6 °F 87.1 °F 77.0 °F 89% 29.92 in 5.6 mi West 3.5 mph - N/A Rain Light Rain
10:30 AM 84.2 °F 94.1 °F 77.0 °F 79% 29.92 in 5.6 mi West 3.5 mph - N/A   Scattered Clouds
11:00 AM 83 °F - 74 °F 68% 29.93 in 6 mi NNW 5.8 mph - -   Partly Cloudy
11:00 AM 84.2 °F 90.9 °F 73.4 °F 70% 29.92 in 5.6 mi NNW 5.8 mph - N/A   Scattered Clouds
11:30 AM 84.2 °F 92.3 °F 75.2 °F 74% 29.92 in 5.6 mi NNW 6.9 mph - N/A   Scattered Clouds
12:00 PM 84.2 °F 92.3 °F 75.2 °F 74% 29.89 in 5.6 mi NNW 8.1 mph - N/A   Scattered Clouds
1:00 PM 84.2 °F 92.3 °F 75.2 °F 74% 29.86 in 6.2 mi North 9.2 mph - N/A   Scattered Clouds
2:00 PM 85 °F - 74 °F 64% 29.86 in 6 mi NNW 6.9 mph - -   Partly Cloudy
2:00 PM 86.0 °F 95.1 °F 75.2 °F 70% 29.86 in 6.2 mi NNW 6.9 mph - N/A   Scattered Clouds
2:30 PM 84.2 °F 92.3 °F 75.2 °F 74% 29.83 in 6.2 mi NNW 10.4 mph - N/A   Scattered Clouds
3:30 PM 82.4 °F 89.5 °F 75.2 °F 79% 29.83 in 6.2 mi North 8.1 mph - N/A   Scattered Clouds
4:30 PM 84.2 °F 90.9 °F 73.4 °F 70% 29.83 in 6.2 mi NW 6.9 mph - N/A   Scattered Clouds
5:00 PM 82 °F - 75 °F 73% 29.86 in 6 mi NW 4.6 mph - -   Partly Cloudy
5:30 PM 80.6 °F 85.4 °F 73.4 °F 79% 29.86 in 6.2 mi NW 4.6 mph - N/A   Scattered Clouds
6:30 PM 80.6 °F 85.4 °F 73.4 °F 79% 29.86 in 5.6 mi NW 3.5 mph - N/A   Partly Cloudy
7:30 PM 78.8 °F - 73.4 °F 83% 29.89 in 5.6 mi NNE 2.3 mph - N/A   Partly Cloudy
8:00 PM 79 °F - 74 °F 81% 29.91 in 6 mi NNE 1.2 mph - -   Partly Cloudy
8:30 PM 77.0 °F - 73.4 °F 89% 29.92 in 5.6 mi ESE 2.3 mph - N/A   Partly Cloudy
11:00 PM 74 °F - 73 °F 97% 29.95 in 6 mi NNE 2.3 mph - -   Scattered Clouds